[[{"header":{"parameterUnit":"m.s-1","parameterCategory":1,"la1":30.2991,"la2":30.254,"lo1":-89.0895,"lo2":-89.0444,"dy":0.0017,"dx":0.0017,"nx":28,"ny":28,"refTime":"2025-07-31T21:00:00:Z","depth":0,"parameterNumber":2,"parameterNumberName":"U-component_of_WINDS"},"data":[0,0,0,0,0,0,0,0,0,0,0,0,0,0,0,0,0,0,0,0,0,0,0,0,0,0,0,0,0,0,0,0,0,0,0,0,0,0,0,0,0,0,0,0,0,0,0,0,0,0,0,0,0,0,0,0,0,0,0.1939,0.194,0,0.1993,0.1994,0.1994,0.1916,0.1913,0.1911,0.1908,0.1974,0.1978,0.1982,0,0,0,0,0,0,0,0,0,0,0,0,0,0.1781,0.1784,0.1939,0.194,0.1941,0.1993,0.1994,0.1995,0.1917,0.1913,0.191,0.1907,0.1972,0.1977,0.1982,0,0,0,0,0,0,0,0,0,0,0,0,0,0.1844,0.1785,0.1939,0.1908,0.1905,0.1993,0.1994,0.1995,0.1917,0.1913,0.1909,0.1905,0.197,0.1977,0.1983,0.2107,0,0,0.2003,0.2006,0,0,0,0,0,0,0,0,0.1841,0.185,0.1912,0.191,0.1908,0.1943,0.1962,0.2033,0.1918,0.1913,0.1908,0.1903,0.1968,0.1974,0.1994,0.211,0.2113,0.2004,0.2008,0.201,0.2012,0,0,0,0,0,0,0,0.1836,0.1847,0.1961,0.1913,0.191,0.1895,0.1899,0.1975,0.1964,0.1913,0.1908,0.1915,0.1966,0.1988,0.1995,0.2114,0.2004,0.2009,0.2013,0.2016,0.2342,0.2346,0,0,0,0,0,0,0.1834,0.1844,0.1959,0.1962,0.1863,0.1901,0.1906,0.1936,0.1962,0.1962,0.1918,0.1911,0.1979,0.1987,0.1997,0.2148,0.201,0.2016,0.202,0.2337,0.2343,0.2348,0,0,0,0,0,0,0.1831,0.1845,0.1957,0.1902,0.1915,0.1908,0.1943,0.194,0.1961,0.1966,0.1965,0.1942,0.1976,0.1988,0.2081,0.215,0.2019,0.2025,0.2332,0.2339,0.2346,0.245,0,0,0,0,0,0,0.1827,0.1844,0.1888,0.1903,0.1918,0.2037,0.1947,0.1944,0.1972,0.1962,0.1988,0.1988,0.1973,0.2072,0.2088,0.2156,0.203,0.2326,0.2335,0.2343,0.2441,0.246,0.2476,0,0,0,0,0,0.1821,0.1916,0.1891,0.1905,0.1972,0.2041,0.205,0.2028,0.1977,0.2024,0.2028,0.1987,0.2138,0.2082,0.2099,0.2171,0.2321,0.2332,0.2343,0.2433,0.2456,0.2476,0,0,0,0,0,0,0.1912,0.1918,0.1889,0.1991,0.2016,0.2027,0.2085,0.2052,0.2094,0.2085,0.2058,0.2065,0.2166,0.2177,0.2114,0.2295,0.2222,0.2237,0.2285,0.2307,0.2325,0.2322,0.2036,0,0,0,0,0,0.1944,0.1995,0.1998,0.2088,0.2102,0.2092,0.2121,0.2102,0.2128,0.2139,0.2149,0.2179,0.2234,0.227,0.232,0.2441,0.2449,0.2499,0.2517,0.2531,0.2546,0.2617,0.2641,0.2383,0.2383,0.2383,0,0,0.201,0.2019,0.2054,0.2107,0.2124,0.2183,0.2101,0.2165,0.2211,0.2149,0.2239,0.2248,0.228,0.2389,0.2437,0.2401,0.2619,0.2545,0.2557,0.2563,0.2631,0.2655,0.2677,0.239,0.2389,0.2388,0,0,0.2162,0.2172,0.225,0.2269,0.2295,0.2288,0.2307,0.2324,0.2327,0.2415,0.2372,0.2427,0.252,0.2547,0.2572,0.2738,0.2706,0.2755,0.2851,0.2921,0.2941,0.2959,0.3024,0.3047,0.2769,0.2769,0.2769,0,0.2243,0.2326,0.2296,0.2364,0.2392,0.2336,0.2419,0.2439,0.2482,0.2504,0.2462,0.2581,0.2598,0.2716,0.2756,0.2777,0.2803,0.2754,0.294,0.2957,0.2974,0.3036,0.306,0.2775,0.2775,0.2774,0.2774,0,0.2427,0.2485,0.2546,0.2587,0.2621,0.2696,0.2682,0.2721,0.2699,0.2699,0.2793,0.2812,0.2868,0.2893,0.2873,0.301,0.2988,0.2943,0.287,0.3005,0.3064,0.3087,0.2785,0.2782,0.278,0.2779,0,0,0.2638,0.2662,0.2686,0.2706,0.2732,0.2779,0.2854,0.2906,0.2943,0.2974,0.3041,0.3122,0.3082,0.3112,0.3095,0.3155,0.3293,0.3104,0.3104,0.3143,0.3453,0.349,0.3517,0.327,0.3274,0.3277,0.3452,0,0.2794,0.2921,0.2898,0.3023,0.3081,0.3031,0.3097,0.3123,0.3125,0.3178,0.3181,0.3241,0.3181,0.3199,0.3256,0.3264,0.3356,0.325,0.3338,0.3341,0.3336,0.3547,0.3585,0.3749,0.3474,0.3478,0.348,0,0.2993,0.3031,0.3162,0.3183,0.3207,0.3266,0.3315,0.3363,0.3394,0.3392,0.3426,0.3399,0.348,0.3403,0.3518,0.3447,0.3481,0.3491,0.3497,0.3508,0.3422,0.357,0.38,0.3827,0.3515,0.3512,0.3509,0,0.3142,0.3226,0.3316,0.3334,0.3359,0.3404,0.3417,0.3443,0.3477,0.3521,0.3544,0.3597,0.3628,0.3672,0.3662,0.3605,0.3783,0.3702,0.3789,0.379,0.3832,0.383,0.4077,0.3845,0.3845,0.3844,0.3844,0,0.3321,0.3405,0.3384,0.344,0.3535,0.3509,0.3604,0.3612,0.3636,0.3697,0.3656,0.3716,0.3696,0.3756,0.3749,0.385,0.3862,0.3867,0.3866,0.3874,0.3874,0.39,0.389,0.3851,0.3849,0.3848,0.3847,0,0.3505,0.3493,0.3589,0.3605,0.3612,0.3681,0.3697,0.3753,0.3751,0.383,0.3847,0.3847,0.3916,0.3909,0.3986,0.3982,0.4108,0.409,0.4098,0.4096,0.4184,0.4178,0.446,0.4499,0.4237,0.4239,0.4241,0,0.3622,0.3686,0.3708,0.3745,0.3761,0.382,0.3855,0.3833,0.3872,0.3914,0.3967,0.4031,0.4081,0.4195,0.4205,0.4266,0.4252,0.4347,0.4262,0.427,0.4261,0.426,0.4269,0.4366,0.4368,0.4371,0.4373,0,0.3835,0.3827,0.3876,0.3926,0.3968,0.4007,0.4041,0.4075,0.4057,0.4104,0.4172,0.4212,0.4291,0.4358,0.4416,0.4435,0.4405,0.4399,0.4423,0.4435,0.4439,0.4445,0.415,0.4394,0.4392,0.439,0.4389,0.4388,0.3993,0.4049,0.4075,0.4133,0.4157,0.4191,0.4246,0.4251,0.4307,0.4368,0.4352,0.4432,0.4466,0.4541,0.4566,0.4631,0.4597,0.4631,0.4641,0.4651,0.4664,0.4424,0.4641,0.464,0.464,0.4639,0.4639,0,0.4208,0.4222,0.4276,0.4326,0.4374,0.4335,0.4373,0.4418,0.4487,0.4519,0.457,0.4652,0.4718,0.4733,0.4798,0.4848,0.4836,0.4866,0.4865,0.4871,0.4687,0.4662,0.4875,0.4875,0.4875,0.4875,0.4875,0.4875,0.4326,0.4421,0.4416,0.4524,0.4539,0.4614,0.464,0.4674,0.47,0.4793,0.4846,0.4854,0.4883,0.4949,0.501,0.5013,0.5042,0.5079,0.5078,0.4907,0.4883,0.4861,0.4838,0.5084,0.5085,0.5258,0.5259,0.5261]},{"header":{"parameterUnit":"m.s-1","parameterCategory":1,"la1":30.2991,"la2":30.254,"lo1":-89.0895,"lo2":-89.0444,"dy":0.0017,"dx":0.0017,"nx":28,"ny":28,"refTime":"2025-07-31T21:00:00:Z","depth":0,"parameterNumber":3,"parameterNumberName":"V-component_of_WINDS"},"data":[0,0,0,0,0,0,0,0,0,0,0,0,0,0,0,0,0,0,0,0,0,0,0,0,0,0,0,0,0,0,0,0,0,0,0,0,0,0,0,0,0,0,0,0,0,0,0,0,0,0,0,0,0,0,0,0,0,0,-2.3831,-2.3831,0,-2.3804,-2.3803,-2.3803,-2.3805,-2.3806,-2.3806,-2.3806,-2.3775,-2.3774,-2.3773,0,0,0,0,0,0,0,0,0,0,0,0,0,-2.3879,-2.3878,-2.3831,-2.3831,-2.383,-2.3804,-2.3803,-2.3803,-2.3805,-2.3806,-2.3806,-2.3807,-2.3775,-2.3774,-2.3772,0,0,0,0,0,0,0,0,0,0,0,0,0,-2.3856,-2.3878,-2.3831,-2.3828,-2.3828,-2.3804,-2.3803,-2.3803,-2.3805,-2.3806,-2.3806,-2.3807,-2.3776,-2.3774,-2.3772,-2.3748,0,0,-2.3767,-2.3766,0,0,0,0,0,0,0,0,-2.3857,-2.3854,-2.3829,-2.3828,-2.3828,-2.3809,-2.3809,-2.3784,-2.3805,-2.3814,-2.3806,-2.3807,-2.3785,-2.3783,-2.3776,-2.3747,-2.3745,-2.3766,-2.3765,-2.3765,-2.3764,0,0,0,0,0,0,0,-2.3859,-2.3855,-2.382,-2.3829,-2.3828,-2.3826,-2.3824,-2.3804,-2.3796,-2.3813,-2.3813,-2.381,-2.3785,-2.3778,-2.3775,-2.3745,-2.3766,-2.3765,-2.3764,-2.3763,-2.369,-2.3689,0,0,0,0,0,0,-2.3861,-2.3856,-2.3821,-2.3819,-2.3844,-2.3825,-2.3822,-2.3814,-2.3796,-2.3794,-2.3809,-2.381,-2.3781,-2.3778,-2.3774,-2.3742,-2.3765,-2.3763,-2.3762,-2.3691,-2.369,-2.3689,0,0,0,0,0,0,-2.3863,-2.3858,-2.3822,-2.3838,-2.3833,-2.3824,-2.3814,-2.3813,-2.3806,-2.3794,-2.3792,-2.3804,-2.3781,-2.3777,-2.3754,-2.3741,-2.3762,-2.376,-2.3692,-2.369,-2.3689,-2.3679,0,0,0,0,0,0,-2.3864,-2.3859,-2.3851,-2.3838,-2.3832,-2.3804,-2.3814,-2.3812,-2.3803,-2.3804,-2.3788,-2.3786,-2.3781,-2.3757,-2.3752,-2.3739,-2.3759,-2.3693,-2.3691,-2.3689,-2.368,-2.3678,-2.3675,0,0,0,0,0,-2.3866,-2.3849,-2.3851,-2.3846,-2.3823,-2.3803,-2.38,-2.3796,-2.3802,-2.3793,-2.3785,-2.3787,-2.3744,-2.3754,-2.3749,-2.3735,-2.3693,-2.3691,-2.369,-2.3682,-2.3678,-2.3675,0,0,0,0,0,0,-2.3861,-2.3848,-2.3849,-2.3828,-2.3817,-2.3804,-2.3792,-2.3793,-2.3779,-2.378,-2.3774,-2.377,-2.3746,-2.3739,-2.3751,-2.3709,-2.3719,-2.3716,-2.3715,-2.3711,-2.3709,-2.371,-2.3757,0,0,0,0,0,-2.3858,-2.3845,-2.3833,-2.3816,-2.381,-2.3802,-2.3794,-2.3791,-2.3779,-2.3774,-2.3764,-2.375,-2.3733,-2.3722,-2.3706,-2.368,-2.3674,-2.3667,-2.3665,-2.3662,-2.3659,-2.364,-2.3636,-2.3682,-2.3682,-2.3682,0,0,-2.385,-2.3842,-2.3834,-2.3814,-2.3805,-2.3789,-2.3798,-2.3782,-2.3769,-2.3771,-2.3748,-2.374,-2.3724,-2.3698,-2.3686,-2.3691,-2.3645,-2.366,-2.3658,-2.3656,-2.3638,-2.3634,-2.363,-2.3681,-2.3681,-2.3682,0,0,-2.3829,-2.3822,-2.3805,-2.3796,-2.3782,-2.3776,-2.3772,-2.3758,-2.3753,-2.373,-2.373,-2.3714,-2.3686,-2.3673,-2.3664,-2.3634,-2.3633,-2.3629,-2.3614,-2.3596,-2.3592,-2.3589,-2.3575,-2.357,-2.3626,-2.3626,-2.3626,0,-2.3821,-2.3799,-2.3797,-2.3779,-2.3769,-2.3771,-2.3752,-2.3742,-2.3723,-2.3715,-2.3721,-2.3683,-2.3673,-2.3643,-2.3635,-2.3628,-2.362,-2.363,-2.3594,-2.359,-2.3587,-2.3573,-2.3568,-2.3625,-2.3625,-2.3626,-2.3626,0,-2.3789,-2.3773,-2.3761,-2.3743,-2.3732,-2.3714,-2.3706,-2.3695,-2.3693,-2.3686,-2.366,-2.3647,-2.3627,-2.362,-2.3618,-2.3588,-2.3591,-2.3595,-2.3605,-2.3582,-2.3569,-2.3564,-2.3624,-2.3625,-2.3625,-2.3625,0,0,-2.3764,-2.3744,-2.3739,-2.3729,-2.3713,-2.3699,-2.368,-2.3661,-2.3649,-2.3636,-2.3617,-2.3592,-2.3595,-2.3583,-2.358,-2.3564,-2.3536,-2.357,-2.3569,-2.3561,-2.3498,-2.3492,-2.3487,-2.3537,-2.3536,-2.3535,-2.3498,0,-2.3739,-2.3707,-2.3702,-2.3672,-2.3656,-2.3655,-2.3637,-2.3624,-2.3616,-2.3599,-2.3589,-2.357,-2.3578,-2.357,-2.3555,-2.3543,-2.3523,-2.3546,-2.3516,-2.3515,-2.3518,-2.3481,-2.3476,-2.3441,-2.3493,-2.3492,-2.3492,0,-2.3706,-2.3691,-2.3659,-2.3642,-2.3635,-2.362,-2.3599,-2.3584,-2.3567,-2.3562,-2.3548,-2.3545,-2.3522,-2.3533,-2.3499,-2.3514,-2.3502,-2.3494,-2.3492,-2.3487,-2.35,-2.3472,-2.3431,-2.3424,-2.3484,-2.3485,-2.3485,0,-2.3688,-2.366,-2.3636,-2.3628,-2.3608,-2.3597,-2.3587,-2.3571,-2.3559,-2.3541,-2.3532,-2.3511,-2.3499,-2.3481,-2.3471,-2.3482,-2.3436,-2.3448,-2.3428,-2.3428,-2.3417,-2.3418,-2.3371,-2.3413,-2.3414,-2.3414,-2.3414,0,-2.3659,-2.3639,-2.3627,-2.3613,-2.3589,-2.3583,-2.3558,-2.3549,-2.3534,-2.3515,-2.3513,-2.3495,-2.3485,-2.3464,-2.3456,-2.3426,-2.3422,-2.3414,-2.3412,-2.3413,-2.3414,-2.3403,-2.3404,-2.3412,-2.3413,-2.3413,-2.3413,0,-2.3634,-2.3627,-2.36,-2.3583,-2.3578,-2.356,-2.3544,-2.3528,-2.3519,-2.3495,-2.3489,-2.3475,-2.345,-2.3439,-2.3409,-2.3403,-2.3367,-2.3368,-2.3373,-2.3372,-2.3351,-2.3352,-2.3294,-2.3284,-2.3336,-2.3336,-2.3335,0,-2.3616,-2.36,-2.358,-2.3568,-2.3558,-2.3539,-2.3526,-2.3518,-2.3504,-2.3481,-2.3467,-2.3442,-2.3422,-2.3381,-2.3367,-2.3342,-2.334,-2.3321,-2.3336,-2.3336,-2.3336,-2.3335,-2.3332,-2.3318,-2.3317,-2.3317,-2.3317,0,-2.3582,-2.3578,-2.356,-2.354,-2.3524,-2.3507,-2.3491,-2.348,-2.3469,-2.3452,-2.3427,-2.3411,-2.3379,-2.3353,-2.3327,-2.3314,-2.3312,-2.3312,-2.3306,-2.3305,-2.3307,-2.3302,-2.3363,-2.3313,-2.3314,-2.3314,-2.3314,-2.3314,-2.3558,-2.3543,-2.3526,-2.3504,-2.3491,-2.3474,-2.3457,-2.3446,-2.3425,-2.3399,-2.3395,-2.3367,-2.3346,-2.3311,-2.3297,-2.3272,-2.3277,-2.3268,-2.3265,-2.3263,-2.3259,-2.3313,-2.3268,-2.3268,-2.3268,-2.3268,-2.3268,0,-2.3522,-2.351,-2.3491,-2.3467,-2.3449,-2.345,-2.3431,-2.3415,-2.3391,-2.3372,-2.3352,-2.332,-2.3294,-2.3276,-2.3249,-2.3232,-2.323,-2.3225,-2.3224,-2.322,-2.3259,-2.3266,-2.3227,-2.3227,-2.3227,-2.3227,-2.3227,-2.3227,-2.3501,-2.3474,-2.3467,-2.3431,-2.3419,-2.3393,-2.3381,-2.3364,-2.3349,-2.3314,-2.3292,-2.3281,-2.3261,-2.3232,-2.3206,-2.3201,-2.3189,-2.3183,-2.3178,-2.3214,-2.3218,-2.3223,-2.3229,-2.3182,-2.3182,-2.3141,-2.314,-2.314]}]]